JST504 YMML-YSSY

Flight info

Callsign JST504
Flight time 1h 8m
Altitude 37000
Route DOSEL2/34 DOSEL Y59 RIVET
Aircraft A320/M-SDE3FGHIRWY/LB1

Departure

Time 2026-05-04 07:59
Airport Melbourne Airport (YMML)

Arrival

Time 2026-05-04 09:07
Airport Sydney Kingsford Smith International Airport (YSSY)
Time Latitude Longitude Altitude Speed Heading
2026-05-04 06:36 -37.67653 144.84710 375 ft 0 kts 351°
2026-05-04 07:43 -37.67661 144.84711 375 ft 4 kts 351°
2026-05-04 07:43 -37.67687 144.84717 374 ft 4 kts 348°
2026-05-04 07:43 -37.67713 144.84725 373 ft 4 kts 334°
2026-05-04 07:43 -37.67731 144.84742 372 ft 4 kts 276°
2026-05-04 07:44 -37.67732 144.84741 372 ft 4 kts 262°
2026-05-04 07:44 -37.67736 144.84710 372 ft 1 kts 261°
2026-05-04 07:49 -37.67736 144.84709 371 ft 1 kts 261°
2026-05-04 07:49 -37.67739 144.84683 371 ft 5 kts 261°
2026-05-04 07:50 -37.67756 144.84623 373 ft 10 kts 233°
2026-05-04 07:50 -37.67821 144.84555 365 ft 15 kts 247°
2026-05-04 07:50 -37.67838 144.84406 363 ft 19 kts 262°
2026-05-04 07:50 -37.67858 144.84242 363 ft 21 kts 262°
2026-05-04 07:51 -37.67870 144.84139 362 ft 7 kts 261°
2026-05-04 07:51 -37.67873 144.84116 364 ft 0 kts 262°
2026-05-04 07:57 -37.67873 144.84112 358 ft 2 kts 262°
2026-05-04 07:58 -37.67879 144.84064 357 ft 9 kts 261°
2026-05-04 07:58 -37.67867 144.83971 362 ft 13 kts 317°
2026-05-04 07:58 -37.67778 144.83949 360 ft 16 kts 351°
2026-05-04 07:58 -37.67438 144.83887 373 ft 84 kts 351°
2026-05-04 07:59 -37.66683 144.83744 399 ft 133 kts 352°
2026-05-04 07:59 -37.65708 144.83568 889 ft 139 kts 355°
2026-05-04 07:59 -37.64754 144.83399 1677 ft 137 kts 348°
2026-05-04 07:59 -37.63804 144.83213 2352 ft 144 kts 345°
2026-05-04 08:00 -37.62740 144.82995 2765 ft 166 kts 345°
2026-05-04 08:00 -37.61523 144.82747 3170 ft 186 kts 345°
2026-05-04 08:00 -37.60189 144.82482 3502 ft 206 kts 346°
2026-05-04 08:02 -37.48726 144.88585 8805 ft 279 kts 19°
2026-05-04 08:02 -37.46960 144.89651 9649 ft 285 kts 19°
2026-05-04 08:02 -37.45161 144.90759 10344 ft 297 kts 23°
2026-05-04 08:03 -37.43431 144.92350 10655 ft 328 kts 39°
2026-05-04 08:03 -37.41938 144.94621 11259 ft 344 kts 52°
2026-05-04 08:03 -37.40591 144.97135 11993 ft 349 kts 51°
2026-05-04 08:03 -37.39197 144.99655 12754 ft 353 kts 50°
2026-05-04 08:04 -37.37771 145.02180 13540 ft 356 kts 50°
2026-05-04 08:04 -37.36316 145.04733 14232 ft 361 kts 50°
2026-05-04 08:04 -37.34846 145.07303 14915 ft 364 kts 50°
2026-05-04 08:04 -37.33363 145.09897 15588 ft 367 kts 50°
2026-05-04 08:05 -37.31891 145.12482 16254 ft 370 kts 50°
2026-05-04 08:05 -37.30390 145.15124 16918 ft 374 kts 50°
2026-05-04 08:05 -37.28875 145.17792 17605 ft 377 kts 50°
2026-05-04 08:05 -37.27347 145.20483 18272 ft 380 kts 50°
2026-05-04 08:06 -37.25805 145.23197 18853 ft 383 kts 50°
2026-05-04 08:06 -37.24250 145.25933 19462 ft 386 kts 50°
2026-05-04 08:06 -37.22685 145.28684 20088 ft 388 kts 50°
2026-05-04 08:06 -37.21112 145.31450 20696 ft 391 kts 50°
2026-05-04 08:08 -37.09774 145.51265 24285 ft 410 kts 48°
2026-05-04 08:08 -37.08103 145.54173 24738 ft 412 kts 47°
2026-05-04 08:10 -36.94385 145.77958 28123 ft 433 kts 44°
2026-05-04 08:11 -36.92612 145.81011 28592 ft 434 kts 44°
2026-05-04 08:11 -36.89075 145.87122 29460 ft 440 kts 43°
2026-05-04 08:11 -36.87274 145.90227 29814 ft 443 kts 43°
2026-05-04 08:12 -36.85456 145.93353 30185 ft 446 kts 43°
2026-05-04 08:12 -36.83623 145.96501 30529 ft 450 kts 43°
2026-05-04 08:12 -36.81776 145.99669 30843 ft 453 kts 43°
2026-05-04 08:12 -36.79916 146.02857 31155 ft 456 kts 44°
2026-05-04 08:13 -36.78048 146.06057 31451 ft 459 kts 44°
2026-05-04 08:13 -36.76163 146.09286 31840 ft 459 kts 44°
2026-05-04 08:13 -36.74309 146.12463 32248 ft 460 kts 44°
2026-05-04 08:13 -36.72426 146.15693 32662 ft 461 kts 44°
2026-05-04 08:14 -36.70539 146.18924 33095 ft 461 kts 44°
2026-05-04 08:14 -36.68647 146.22154 33538 ft 462 kts 44°
2026-05-04 08:14 -36.66751 146.25384 33984 ft 462 kts 44°
2026-05-04 08:16 -36.53400 146.48033 36174 ft 468 kts 45°
2026-05-04 08:16 -36.51469 146.51295 36473 ft 469 kts 45°
2026-05-04 08:16 -36.49535 146.54569 36781 ft 470 kts 45°
2026-05-04 08:17 -36.47598 146.57849 36972 ft 472 kts 45°
2026-05-04 08:17 -36.45654 146.61138 37029 ft 472 kts 45°
2026-05-04 08:17 -36.41792 146.67650 37031 ft 471 kts 45°
2026-05-04 08:19 -36.26225 146.93750 37041 ft 469 kts 45°
2026-05-04 08:20 -36.22363 147.00197 37045 ft 469 kts 45°
2026-05-04 08:20 -36.18467 147.06675 37040 ft 469 kts 45°
2026-05-04 08:21 -36.14577 147.13134 37026 ft 468 kts 45°
2026-05-04 08:21 -36.10683 147.19599 37050 ft 468 kts 44°
2026-05-04 08:22 -36.06788 147.26049 37042 ft 468 kts 44°
2026-05-04 08:24 -35.91202 147.51720 37071 ft 468 kts 44°
2026-05-04 08:24 -35.87298 147.58137 37076 ft 468 kts 44°
2026-05-04 08:25 -35.83413 147.64503 37084 ft 468 kts 44°
2026-05-04 08:25 -35.79494 147.70894 37053 ft 467 kts 43°
2026-05-04 08:27 -35.63800 147.96406 37063 ft 468 kts 43°
2026-05-04 08:28 -35.59896 148.02738 37078 ft 468 kts 43°
2026-05-04 08:28 -35.55958 148.09105 37086 ft 468 kts 43°
2026-05-04 08:29 -35.52019 148.15465 37090 ft 468 kts 43°
2026-05-04 08:31 -35.36216 148.40838 37069 ft 469 kts 43°
2026-05-04 08:33 -35.20321 148.66169 37070 ft 469 kts 43°
2026-05-04 08:35 -35.04399 148.91389 37073 ft 469 kts 43°
2026-05-04 08:35 -35.02394 148.94539 36963 ft 472 kts 43°
2026-05-04 08:35 -35.00378 148.97703 36708 ft 472 kts 43°
2026-05-04 08:37 -34.88555 149.16297 33913 ft 458 kts 42°
2026-05-04 08:37 -34.86601 149.19349 33373 ft 455 kts 42°
2026-05-04 08:37 -34.84657 149.22374 32875 ft 450 kts 40°
2026-05-04 08:38 -34.82492 149.24896 32397 ft 424 kts 24°
2026-05-04 08:38 -34.79974 149.26422 31900 ft 388 kts
2026-05-04 08:38 -34.77414 149.27188 31448 ft 374 kts
2026-05-04 08:40 -34.59973 149.31455 27981 ft 358 kts
2026-05-04 08:40 -34.57565 149.32026 27502 ft 356 kts
2026-05-04 08:40 -34.55137 149.32598 27017 ft 355 kts
2026-05-04 08:41 -34.52720 149.33165 26532 ft 353 kts
2026-05-04 08:41 -34.50314 149.33732 26055 ft 352 kts
2026-05-04 08:41 -34.47923 149.34397 25589 ft 358 kts 11°
2026-05-04 08:41 -34.45699 149.35882 25134 ft 377 kts 30°
2026-05-04 08:42 -34.43966 149.38344 24676 ft 394 kts 52°
2026-05-04 08:42 -34.43074 149.41508 24235 ft 401 kts 71°
2026-05-04 08:42 -34.42592 149.44820 23805 ft 398 kts 72°
2026-05-04 08:42 -34.42133 149.48109 23321 ft 395 kts 72°
2026-05-04 08:43 -34.41679 149.51387 22807 ft 395 kts 72°
2026-05-04 08:43 -34.41219 149.54659 22317 ft 393 kts 72°
2026-05-04 08:43 -34.40759 149.57875 21829 ft 392 kts 72°
2026-05-04 08:43 -34.40288 149.61119 21328 ft 391 kts 72°
2026-05-04 08:44 -34.39813 149.64356 20854 ft 390 kts 72°
2026-05-04 08:44 -34.39339 149.67587 20383 ft 388 kts 73°
2026-05-04 08:46 -34.36095 149.89683 17087 ft 374 kts 74°
2026-05-04 08:46 -34.35646 149.92722 16664 ft 369 kts 73°
2026-05-04 08:46 -34.35201 149.95739 16400 ft 360 kts 73°
2026-05-04 08:46 -34.34766 149.98684 16151 ft 352 kts 73°
2026-05-04 08:47 -34.34337 150.01570 15897 ft 345 kts 73°
2026-05-04 08:47 -34.33915 150.04406 15652 ft 339 kts 73°
2026-05-04 08:47 -34.33496 150.07200 15402 ft 336 kts 73°
2026-05-04 08:47 -34.33080 150.09969 15162 ft 334 kts 73°
2026-05-04 08:48 -34.32667 150.12717 14917 ft 332 kts 73°
2026-05-04 08:48 -34.32251 150.15464 14673 ft 331 kts 73°
2026-05-04 08:48 -34.31844 150.18157 14414 ft 329 kts 73°
2026-05-04 08:48 -34.31433 150.20872 14172 ft 328 kts 73°
2026-05-04 08:49 -34.31023 150.23578 13943 ft 327 kts 73°
2026-05-04 08:50 -34.28603 150.39591 12395 ft 319 kts 73°
2026-05-04 08:50 -34.28152 150.42197 12137 ft 313 kts 67°
2026-05-04 08:51 -34.27371 150.44615 11886 ft 305 kts 56°
2026-05-04 08:51 -34.26374 150.46837 11635 ft 304 kts 54°
2026-05-04 08:51 -34.25368 150.49076 11391 ft 303 kts 54°
2026-05-04 08:51 -34.24367 150.51314 11142 ft 302 kts 54°
2026-05-04 08:52 -34.23371 150.53548 10893 ft 302 kts 55°
2026-05-04 08:52 -34.22379 150.55776 10656 ft 300 kts 55°
2026-05-04 08:52 -34.21388 150.57993 10417 ft 299 kts 54°
2026-05-04 08:52 -34.20395 150.60196 10181 ft 298 kts 54°
2026-05-04 08:53 -34.19410 150.62385 9940 ft 296 kts 55°
2026-05-04 08:54 -34.12568 150.77587 9023 ft 291 kts 55°
2026-05-04 08:55 -34.11602 150.79732 8895 ft 290 kts 55°
2026-05-04 08:55 -34.10641 150.81862 8767 ft 289 kts 55°
2026-05-04 08:55 -34.09678 150.83993 8639 ft 289 kts 55°
2026-05-04 08:55 -34.08721 150.86122 8509 ft 288 kts 55°
2026-05-04 08:57 -34.03739 151.01358 6612 ft 300 kts 104°
2026-05-04 09:01 -34.20275 151.22362 3001 ft 223 kts 83°
2026-05-04 09:01 -34.19979 151.24131 3004 ft 209 kts 53°
2026-05-04 09:01 -34.18988 151.25284 3002 ft 195 kts 17°
2026-05-04 09:01 -34.17693 151.25425 3002 ft 187 kts 341°
2026-05-04 09:02 -34.16550 151.24685 3007 ft 188 kts 326°
2026-05-04 09:02 -34.15529 151.23750 2998 ft 178 kts 323°
2026-05-04 09:02 -34.14585 151.22847 3021 ft 171 kts 323°
2026-05-04 09:02 -34.13632 151.22006 3006 ft 168 kts 335°
2026-05-04 09:03 -34.12516 151.21605 2999 ft 169 kts 349°
2026-05-04 09:03 -34.11339 151.21551 3003 ft 170 kts 357°
2026-05-04 09:03 -34.10202 151.21539 3003 ft 154 kts 356°
2026-05-04 09:03 -34.09185 151.21534 2998 ft 141 kts 358°
2026-05-04 09:04 -34.08230 151.21531 3002 ft 135 kts 356°
2026-05-04 09:04 -34.07293 151.21529 2971 ft 135 kts 357°
2026-05-04 09:04 -34.06356 151.21526 2650 ft 134 kts 358°
2026-05-04 09:04 -34.05431 151.21522 2303 ft 133 kts 359°
2026-05-04 09:05 -34.04534 151.21374 2045 ft 129 kts 349°
2026-05-04 09:05 -34.03652 151.21141 2020 ft 130 kts 348°
2026-05-04 09:05 -34.02764 151.20901 2015 ft 130 kts 350°
2026-05-04 09:05 -34.01880 151.20665 1751 ft 136 kts 350°
2026-05-04 09:06 -34.00943 151.20417 1260 ft 136 kts 350°
2026-05-04 09:07 -33.95443 151.18940 25 ft 33 kts 340°
2026-05-04 09:08 -33.95286 151.18839 28 ft 13 kts 325°
2026-05-04 09:08 -33.95247 151.18803 28 ft 7 kts 321°
2026-05-04 09:08 -33.95210 151.18763 29 ft 8 kts 316°
2026-05-04 09:08 -33.95163 151.18709 29 ft 7 kts 319°
2026-05-04 09:09 -33.95124 151.18669 30 ft 6 kts 319°
2026-05-04 09:09 -33.95116 151.18660 30 ft 0 kts 318°
2026-05-04 09:09 -33.95106 151.18649 30 ft 4 kts 318°
2026-05-04 09:09 -33.95086 151.18611 30 ft 7 kts 281°
2026-05-04 09:10 -33.95094 151.18543 30 ft 10 kts 258°
2026-05-04 09:10 -33.95111 151.18452 30 ft 13 kts 257°
2026-05-04 09:10 -33.95129 151.18358 30 ft 12 kts 257°
2026-05-04 09:10 -33.95150 151.18247 30 ft 15 kts 257°
2026-05-04 09:11 -33.95169 151.18137 31 ft 10 kts 259°
2026-05-04 09:11 -33.95155 151.18048 31 ft 13 kts 318°
2026-05-04 09:11 -33.95058 151.18021 31 ft 16 kts 349°
2026-05-04 09:11 -33.94937 151.17990 30 ft 19 kts 348°
2026-05-04 09:12 -33.94861 151.17970 30 ft 12 kts 347°
2026-05-04 09:12 -33.94769 151.17946 30 ft 15 kts 348°
2026-05-04 09:14 -33.94210 151.17758 30 ft 1 kts 254°
2026-05-04 09:14 -33.94216 151.17735 30 ft 5 kts 256°
2026-05-04 09:14 -33.94197 151.17696 29 ft 7 kts 325°
2026-05-04 09:14 -33.94136 151.17674 29 ft 11 kts 347°
2026-05-04 09:15 -33.94045 151.17649 28 ft 15 kts 346°
2026-05-04 09:15 -33.93950 151.17624 29 ft 14 kts 347°
2026-05-04 09:15 -33.93856 151.17599 29 ft 15 kts 347°
2026-05-04 09:15 -33.93763 151.17575 29 ft 12 kts 349°
2026-05-04 09:17 -33.93657 151.17548 29 ft 0 kts 347°
2026-05-04 09:18 -33.93654 151.17549 29 ft 1 kts 357°
2026-05-04 09:18 -33.93644 151.17563 29 ft 3 kts 66°
2026-05-04 09:18 -33.93643 151.17601 30 ft 6 kts 88°
2026-05-04 09:18 -33.93642 151.17664 30 ft 9 kts 95°
2026-05-04 09:19 -33.93654 151.17752 30 ft 12 kts 99°
2026-05-04 09:19 -33.93637 151.17818 30 ft 10 kts 31°
2026-05-04 09:19 -33.93571 151.17828 30 ft 9 kts
2026-05-04 09:19 -33.93555 151.17831 30 ft 3 kts
2026-05-04 09:20 -33.93518 151.17839 30 ft 7 kts 10°
2026-05-04 09:20 -33.93489 151.17804 30 ft 5 kts 275°
2026-05-04 09:20 -33.93485 151.17778 30 ft 2 kts 279°
2026-05-04 09:20 -33.93485 151.17773 30 ft 0 kts 279°